| time (UTC) | temp C | wind direction | speed KPH | gust KPH | rain 1hr cm | rain 24hr cm | rain mn cm | humidity % | barometer mb |
| 20260507001509 | 16 | 304 | 17.7 | 30.6 | 0.00 | 0.00 | 0.00 | 75 | 1010.6 |
| 20260507000006 | 16 | 308 | 16.1 | 32.2 | 0.00 | 0.00 | 0.00 | 75 | 1010.8 |
| 20260506234506 | 17 | 340 | 12.9 | 30.6 | 0.00 | 0.00 | 0.00 | 75 | 1010.8 |
| 20260506233004 | 17 | 299 | 16.1 | 29.0 | 0.00 | 0.00 | 0.00 | 75 | 1010.9 |
| 20260506231504 | 17 | 360 | 17.7 | 30.6 | 0.00 | 0.00 | 0.00 | 75 | 1010.9 |
| 20260506230006 | 17 | 40 | 17.7 | 35.4 | 0.00 | 0.00 | 0.00 | 75 | 1011.0 |
| 20260506224502 | 17 | 284 | 19.3 | 30.6 | 0.00 | 0.00 | 0.00 | 74 | 1011.2 |
| 20260506223002 | 17 | 355 | 17.7 | 37.0 | 0.00 | 0.00 | 0.00 | 75 | 1011.3 |
| 20260506221500 | 17 | 308 | 17.7 | 33.8 | 0.00 | 0.00 | 0.00 | 74 | 1011.5 |
| 20260506214559 | 17 | 330 | 11.3 | 30.6 | 0.00 | 0.00 | 0.00 | 73 | 1011.9 |
| 20260506213058 | 18 | 326 | 14.5 | 30.6 | 0.00 | 0.00 | 0.00 | 72 | 1011.9 |
| 20260506211555 | 18 | 339 | 16.1 | 29.0 | 0.00 | 0.00 | 0.00 | 70 | 1011.9 |
| 20260506210054 | 19 | 360 | 9.7 | 20.9 | 0.00 | 0.00 | 0.00 | 70 | 1012.0 |
| 20260506204552 | 18 | 345 | 12.9 | 27.4 | 0.00 | 0.00 | 0.00 | 70 | 1012.1 |
| 20260506203052 | 18 | 355 | 9.7 | 24.1 | 0.00 | 0.00 | 0.00 | 71 | 1012.1 |
| 20260506201552 | 18 | 312 | 12.9 | 24.1 | 0.00 | 0.00 | 0.00 | 70 | 1012.4 |
| 20260506200047 | 19 | 290 | 11.3 | 19.3 | 0.00 | 0.00 | 0.00 | 68 | 1012.4 |
| 20260506194547 | 20 | 305 | 9.7 | 17.7 | 0.00 | 0.00 | 0.00 | 68 | 1012.5 |
| 20260506193044 | 20 | 304 | 9.7 | 17.7 | 0.00 | 0.00 | 0.00 | 66 | 1012.6 |
| 20260506191540 | 20 | 304 | 3.2 | 16.1 | 0.00 | 0.00 | 0.00 | 66 | 1012.7 |
| 20260506190041 | 20 | 324 | 6.4 | 17.7 | 0.00 | 0.00 | 0.00 | 67 | 1012.9 |
| 20260506184545 | 19 | 360 | 4.8 | 14.5 | 0.00 | 0.00 | 0.00 | 67 | 1012.8 |
| 20260506183036 | 19 | 315 | 3.2 | 14.5 | 0.00 | 0.00 | 0.00 | 70 | 1012.9 |
| 20260506181535 | 18 | 340 | 1.6 | 11.3 | 0.00 | 0.00 | 0.00 | 70 | 1012.9 |
| 20260506180034 | 18 | 286 | 1.6 | 12.9 | 0.00 | 0.00 | 0.00 | 71 | 1012.8 |
| 20260506174532 | 19 | 303 | 0.0 | 1.6 | 0.00 | 0.00 | 0.00 | 68 | 1012.8 |
| 20260506173038 | 18 | 296 | 0.0 | 0.0 | 0.00 | 0.00 | 0.00 | 69 | 1012.8 |
| 20260506171529 | 17 | 309 | 0.0 | 9.7 | 0.00 | 0.00 | 0.00 | 73 | 1012.9 |
| 20260506170031 | 17 | 309 | 0.0 | 0.0 | 0.00 | 0.00 | 0.00 | 73 | 1012.9 |
| 20260506164528 | 17 | 65 | 0.0 | 8.0 | 0.00 | 0.00 | 0.00 | 72 | 1012.9 |
| 20260506163031 | 16 | 60 | 0.0 | 0.0 | 0.00 | 0.00 | 0.00 | 75 | 1012.9 |
| 20260506161526 | 16 | 26 | 0.0 | 0.0 | 0.00 | 0.00 | 0.00 | 75 | 1013.0 |
| 20260506160025 | 15 | 21 | 0.0 | 0.0 | 0.00 | 0.00 | 0.00 | 75 | 1012.9 |
| 20260506154522 | 15 | 26 | 0.0 | 0.0 | 0.00 | 0.00 | 0.00 | 77 | 1013.0 |
| 20260506153021 | 15 | 334 | 0.0 | 0.0 | 0.00 | 0.00 | 0.00 | 77 | 1012.9 |
| 20260506151520 | 15 | 322 | 3.2 | 11.3 | 0.00 | 0.00 | 0.00 | 77 | 1012.8 |
| 20260506150016 | 15 | 350 | 0.0 | 0.0 | 0.00 | 0.00 | 0.00 | 78 | 1012.8 |
| 20260506144513 | 15 | 285 | 0.0 | 6.4 | 0.00 | 0.00 | 0.00 | 79 | 1012.7 |
| 20260506143017 | 14 | 24 | 0.0 | 0.0 | 0.00 | 0.00 | 0.00 | 80 | 1012.7 |
| 20260506141505 | 14 | 313 | 0.0 | 0.0 | 0.00 | 0.00 | 0.00 | 81 | 1012.5 |
| 20260506140001 | 13 | 330 | 0.0 | 0.0 | 0.00 | 0.00 | 0.00 | 82 | 1012.3 |
| 20260506134557 | 13 | 277 | 0.0 | 0.0 | 0.00 | 0.00 | 0.00 | 83 | 1012.2 |
| 20260506133053 | 13 | 33 | 0.0 | 0.0 | 0.00 | 0.00 | 0.00 | 84 | 1012.1 |
| 20260506131557 | 13 | 14 | 0.0 | 0.0 | 0.00 | 0.00 | 0.00 | 84 | 1012.2 |
| 20260506130108 | 13 | 30 | 0.0 | 0.0 | 0.00 | 0.00 | 0.00 | 84 | 1012.0 |
| 20260506124556 | 13 | 36 | 0.0 | 0.0 | 0.00 | 0.00 | 0.00 | 84 | 1011.9 |
| 20260506123048 | 13 | 36 | 0.0 | 0.0 | 0.00 | 0.00 | 0.00 | 84 | 1011.8 |
| 20260506121547 | 13 | 26 | 0.0 | 0.0 | 0.00 | 0.00 | 0.00 | 84 | 1011.7 |
| 20260506120046 | 13 | 5 | 0.0 | 0.0 | 0.00 | 0.00 | 0.00 | 84 | 1011.7 |
| 20260506114545 | 12 | 305 | 0.0 | 0.0 | 0.00 | 0.00 | 0.00 | 84 | 1011.7 |
| 20260506113052 | 12 | 9 | 0.0 | 0.0 | 0.00 | 0.00 | 0.00 | 85 | 1011.5 |
| 20260506111543 | 12 | 290 | 0.0 | 0.0 | 0.00 | 0.00 | 0.00 | 85 | 1011.4 |
| 20260506110051 | 13 | 360 | 0.0 | 0.0 | 0.00 | 0.00 | 0.00 | 85 | 1011.3 |
| 20260506104547 | 13 | 360 | 0.0 | 0.0 | 0.00 | 0.00 | 0.00 | 85 | 1011.2 |
| 20260506103047 | 13 | 350 | 0.0 | 0.0 | 0.00 | 0.00 | 0.00 | 85 | 1011.2 |
| 20260506101549 | 13 | 323 | 0.0 | 0.0 | 0.00 | 0.00 | 0.00 | 84 | 1011.1 |
| 20260506100057 | 13 | 294 | 0.0 | 0.0 | 0.00 | 0.00 | 0.00 | 84 | 1011.1 |
| 20260506094536 | 13 | 350 | 0.0 | 12.9 | 0.00 | 0.03 | 0.00 | 84 | 1011.2 |
| 20260506093042 | 13 | 333 | 0.0 | 11.3 | 0.00 | 0.03 | 0.00 | 83 | 1011.2 |
| 20260506091537 | 13 | 306 | 0.0 | 9.7 | 0.00 | 0.03 | 0.00 | 83 | 1011.0 |
| 20260506090033 | 13 | 329 | 1.6 | 9.7 | 0.00 | 0.03 | 0.00 | 83 | 1011.1 |
| 20260506084531 | 13 | 328 | 1.6 | 8.0 | 0.00 | 0.10 | 0.00 | 83 | 1011.1 |
| 20260506083032 | 13 | 321 | 8.0 | 14.5 | 0.00 | 0.10 | 0.00 | 84 | 1011.1 |
| 20260506081533 | 13 | 342 | 4.8 | 12.9 | 0.00 | 0.10 | 0.00 | 84 | 1011.2 |
| 20260506073037 | 13 | 333 | 0.0 | 9.7 | 0.00 | 0.15 | 0.10 | 85 | 1010.9 |
| 20260506071523 | 13 | 294 | 1.6 | 11.3 | 0.00 | 0.15 | 0.10 | 85 | 1010.9 |
| 20260506061518 | 13 | 313 | 0.0 | 9.7 | 0.00 | 0.20 | 0.10 | 84 | 1010.5 |
| 20260506044531 | 13 | 306 | 3.2 | 14.5 | 0.00 | 0.28 | 0.10 | 84 | 1010.0 |
| 20260506043011 | 13 | 301 | 3.2 | 12.9 | 0.00 | 0.28 | 0.10 | 83 | 1009.9 |
| 20260506041509 | 13 | 360 | 3.2 | 12.9 | 0.00 | 0.28 | 0.10 | 83 | 1009.7 |
| 20260506040006 | 13 | 331 | 4.8 | 14.5 | 0.00 | 0.28 | 0.10 | 82 | 1009.3 |
| 20260506034511 | 13 | 270 | 6.4 | 22.5 | 0.00 | 0.28 | 0.10 | 81 | 1009.1 |
| 20260506033007 | 13 | 273 | 8.0 | 17.7 | 0.00 | 0.28 | 0.10 | 81 | 1009.0 |
| 20260506031502 | 13 | 314 | 6.4 | 17.7 | 0.00 | 0.28 | 0.10 | 80 | 1008.8 |
| 20260506030100 | 14 | 290 | 6.4 | 19.3 | 0.00 | 0.28 | 0.10 | 80 | 1008.6 |
| 20260506024559 | 14 | 250 | 6.4 | 20.9 | 0.00 | 0.28 | 0.10 | 79 | 1008.5 |
| 20260506023111 | 14 | 275 | 11.3 | 24.1 | 0.00 | 0.28 | 0.10 | 78 | 1008.5 |
| 20260506021558 | 15 | 280 | 9.7 | 25.7 | 0.00 | 0.28 | 0.10 | 77 | 1008.2 |
| 20260506020058 | 15 | 280 | 11.3 | 22.5 | 0.00 | 0.28 | 0.10 | 76 | 1008.1 |
| 20260506014556 | 15 | 278 | 11.3 | 20.9 | 0.00 | 0.28 | 0.10 | 74 | 1008.1 |
| 20260506013058 | 16 | 273 | 6.4 | 20.9 | 0.00 | 0.28 | 0.10 | 73 | 1008.2 |
| 20260506011617 | 16 | 298 | 6.4 | 25.7 | 0.00 | 0.28 | 0.10 | 72 | 1008.1 |
| 20260506004621 | 17 | 360 | 9.7 | 24.1 | 0.00 | 0.28 | 0.10 | 70 | 1008.0 |
| 20260506003108 | 16 | 290 | 14.5 | 25.7 | 0.00 | 0.28 | 0.10 | 71 | 1007.8 |